Location: Ash Swamp
(41.5170°N, 74.6157°W)
Time: 02:36:34
(UTC+00:00)

ATLAS 5 CENTAUR R/B - Pass Details

Date: 14 July 2020
Orbit: 273 x 14305 km, 60.7° (Epoch: 14 August)

Event Time Altitude Azimuth Distance (km) Brightness Sun altitude
Rises 07:07:26 0° 320° (NW) 2,553 5.5 -20.8°
Reaches altitude 10° 07:08:46 10° 320° (NW) 1,951 4.8 -20.6°
Maximum altitude 07:12:40 89° 233° (SW) 1,082 3.1 -20.3°
Drops below altitude 10° 07:27:15 10° 145° (SE) 6,742 7.1 -18.8°
Sets 07:36:40 0° 146° (SE) 9,986 8.0 -17.7°
